Regional Weather Roundup
Issued by NWS

Home | Current Version | Previous Version | Text Only | Print | Product List | Glossary Off
Versions: 1 2 3 4 5 6 7 8 9 10 11 12 13 14 15 16 17 18 19 20 21 22 23 24 25 26 27 28 29 30 31 32 33 34 35 36 37 38 39 40 41 42 43 44 45 46 47 48 49 50

000
ASUS43 KDTX 241710
RWRMI
MICHIGAN HOURLY REGIONAL WEATHER ROUNDUP
NATIONAL WEATHER SERVICE DETROIT/PONTIAC MI
ISSUED BY NATIONAL WEATHER SERVICE GRAND RAPIDS MI
100 PM EDT THU MAY 24 2018

NOTE: "FAIR" INDICATES FEW OR NO CLOUDS BELOW 12,000 FEET WITH NO
SIGNIFICANT WEATHER AND/OR OBSTRUCTION TO VISIBILITY.

MIZ047>049-052>055-059>063-066>070-074>076-081>083-241800-
SOUTHEAST LOWER MICHIGAN

CITY           SKY/WX    TMP DP  RH WIND       PRES   REMARKS
ADRIAN         FAIR      77  47  34 SW5       30.23F
ALMA           FAIR      78  51  38 SW9G16    30.20F
ANN ARBOR      FAIR      79  48  33 S8        30.22F
BAD AXE        FAIR      78  54  43 W7        30.19F
DETROIT CITY   FAIR      80  50  34 S6        30.20F
DETROIT        FAIR      80  50  34 SE5       30.22F
FLINT          FAIR      78  49  35 VRB5      30.21F
GROSSE ILE     FAIR      75  57  52 S7        30.21F
HILLSDALE      FAIR      77  45  31 CALM      30.23F
HOWELL         FAIR      78  49  35 SW7       30.22F

CITY           SKY/WX    TMP DP  RH WIND       PRES   REMARKS
JACKSON        FAIR      78  48  34 S8        30.21F
LANSING        FAIR      79  52  38 SW6       30.21F
MASON          FAIR      78  48  35 CALM      30.22F
MONROE         FAIR      79  44  28 CALM      30.21F
MT. CLEMENS    MOSUNNY   78  55  45 SE9       30.20F
PONTIAC        FAIR      78  48  34 SW5       30.20F
PORT HOPE        N/A     61  54  77 E12       30.18F
PORT HURON     FAIR      79  54  41 SE3       30.20F
TRI CITIES     FAIR      80  52  37 SW13      30.19F
YPSILANTI      FAIR      82  49  31 VRB6      30.22F
$$
MIZ043>046-050>051-056>058-064>065-071>073-077>080-241800-
SOUTHWEST LOWER MICHIGAN

CITY           SKY/WX    TMP DP  RH WIND       PRES   REMARKS
BATTLE CREEK   FAIR      77  54  44 SW8       30.22F
BENTON HARBOR  FAIR      79  54  41 CALM      30.19F
BIG RAPIDS     FAIR      78  49  35 W10       30.19F
COLDWATER      FAIR      77  46  33 CALM      30.21F
HOLLAND        FAIR      79  55  43 W12       30.20F
GRAND RAPIDS   PTSUNNY   78  55  44 SW9       30.20F
KALAMAZOO      FAIR      79  51  37 S8        30.21F
MARSHALL       FAIR      77  46  32 S3        30.21F
MOUNT PLEASANT FAIR      79  53  40 S6        30.18F
MUSKEGON       FAIR      77  53  43 SW8       30.20F
STURGIS        FAIR      77  47  34 SE5       30.21F
$$
MIZ016>042-241800-
NORTHERN LOWER MICHIGAN

CITY           SKY/WX    TMP DP  RH WIND       PRES   REMARKS
ALPENA         FAIR      83  47  28 VRB6      30.13F
BEAVER ISLAND  FAIR      70  44  39 SW14      30.15F
BELLAIRE       FAIR      78  53  40 SW9       30.16F
CADILLAC       FAIR      78  52  40 SW9       30.18F
CHARLEVOIX     FAIR      75  45  33 SW12G20   30.19S
GAYLORD        FAIR      78  52  40 W12G20    30.16F
MANISTEE       FAIR      79  52  38 SW9G17    30.16F
OSCODA         FAIR      82  49  31 S12G18    30.14F
PELLSTON       FAIR      78  57  48 W13G21    30.15S
TRAVERSE CITY  PTSUNNY   81  55  40 W9        30.14F
LUDINGTON      FAIR      76  55  49 SW10      30.17F
$$
MIZ007>008-015-241800-
EASTERN UPPER MICHIGAN

CITY           SKY/WX    TMP DP  RH WIND       PRES   REMARKS
KINROSS        FAIR      79  58  48 SW12G18   30.11F
MACKINAC ISLAN FAIR      67  50  55 W15G21    30.14S
NEWBERRY       FAIR      78  59  53 S15       30.11F
S. S. MARIE    FAIR      80  60  50 N3        30.09F
$$
MIZ004>006-011>014-085-241800-
CENTRAL UPPER MICHIGAN

CITY           SKY/WX    TMP DP  RH WIND       PRES   REMARKS
MANISTIQUE     FAIR      59  53  82 S7        30.13F
ESCANABA       LGT RAIN  66  56  70 S9        30.13S
SAWYER-GWINN   LGT RAIN  66  63  88 W6        30.14R
$$
MIZ001>003-009>011-084-241800-
WESTERN UPPER MICHIGAN

CITY           SKY/WX    TMP DP  RH WIND       PRES   REMARKS
IRON MOUNTAIN  CLOUDY    70  65  84 CALM      30.12F
HOUGHTON       PTSUNNY   72  62  71 SW7       30.07F
COPPER HARBOR    N/A     59  53  80 N10       30.05F
IRONWOOD       FAIR      70  65  84 S10       30.08F
$$

ABBREVIATIONS USED IN REMARKS
   TC - TEMPERATURE IN CELSIUS
  WCI - WIND CHILL INDEX
   HX - HEAT INDEX
  VSB - VISIBILITY





USA.gov is the U.S. government's official web portal to all federal, state and local government web resources and services.